COSMOS 2360

Satellite information

Favourite Embed

Satellite Type and Status

PAYLOADIN ORBIT

Key statistics

Satellite COSMOS 2360 at a glance.

Uptime

10001

Days in orbit

Revolutions

≈ 14.1

Per day

Orbit

LEO

Low Earth Orbit

Inclination

70.8

Latest

Satellite identification and parameters

Extended collection of information and parameters for COSMOS 2360.

Object identification

Identified? True

Debris? False

Object name: COSMOS 2360

International designator: 1998-045A

Object number (NORAD): 25406

Object ID (CCSDS): 25406

Country: COMMONWEALTH OF INDEPENDENT STATES (CIS)

Current information (Y/N): Y

RCS size: LARGE

Orbital parameters

Period: 101.947 minutes

Inclination: 70.7534 deg

SMA: 7228.965 km

Apoapsis: 856.937 km

Periapsis: 844.722 km

RAAN: 313.99 deg

Eccentricy: 0.0008449

Argument of periapsis: 275.8583 deg

Mean anomaly: 84.1574 deg

Mean motion: 14.12500485 rev/day

Mean motion (dot): -0.00000193 rev/day2

B* drag term: -0.000077636952 1/REarth

Two-line elements (TLE)

Creation date: Dec. 12, 2025, 10:14 a.m.

Reference frame: TEME

Reference center: EARTH

Epoch: Dec. 12, 2025, 6:28 a.m. UTC

TLE line 0: 0 COSMOS 2360

TLE line 1: 1 25406U 98045A 25346.26964653 -.00000193 00000-0 -77637-4 0 9993

TLE line 2: 2 25406 70.7534 313.9900 0008449 275.8583 84.1574 14.12500485411648

Live tracking on map

Real-time ground track for satellite COSMOS 2360.

In-orbit conjunctions

A list of the most updated potential collisions computed for object COSMOS 2360.

Target Orbit TCA Probability of collision Miss distance Type
METEOR 2-17 DEB LEO 2025-11-05 16:05:29 0.0001659898 755.0 (m) DEBRIS
FENGYUN 1C DEB SSO 2025-09-25 05:02:32 0.000135223 954.0 (m) DEBRIS
FENGYUN 1C DEB SSO 2025-01-13 18:44:01 0.0001920425 309.0 (m) DEBRIS
FENGYUN 1C DEB SSO 2025-01-12 23:05:56 0.0002297959 190.0 (m) DEBRIS
COSMOS 2251 DEB LEO 2024-11-18 12:26:43 0.0001659443 329.0 (m) DEBRIS

Associated space launch

Second generation ELING satellite

COSMOS 2360 was lifted into orbit during the mission ‘Zenit-2 | Tselina-2 20’, on board a Zenit-2 space rocket.

The launch took place on July 28, 1998, 9:15 a.m. from 45/1.

For more information about the launch, click the button.

Launch to space Zenit-2 | Tselina-2 20
Zenit-2 | Tselina-2 20

Agency: N/A

Status: Launch Successful

Launch date: July 28, 1998, 9:15 a.m. UTC

Rocket: Zenit-2

Launch pad: 45/1

Location: Baikonur Cosmodrome, Republic of Kazakhstan

...

Latest news about this satellite

There are no fresh news available about this satellite. Check back as we update our databases every day.


Newsletter sign-up

Weekly statistics, charts and insights to help you stay on top of the space industry.